Precipitable_Water
1.37 1.28 1.31 1.42 1.49 1.43 1.47 1.48 1.60 1.58 1.63 1.55 1.51 1.45 1.36 1.39 1.45 1.51 1.43 1.40 1.47 1.41 1.32 1.30 1.37 1.35 1.27 1.31 1.41 1.39 1.32 1.29 1.09 1.11 1.23 1.30 1.32 1.29 1.23 1.21 1.21 1.14 1.16
1.37 1.28 1.27 1.40 1.50 1.52 1.44 1.57 1.60 1.56 1.59 1.56 1.49 1.43 1.35 1.35 1.34 1.44 1.34 1.40 1.44 1.39 1.24 1.24 1.28 1.37 1.40 1.41 1.40 1.36 1.30 1.34 1.26 1.16 1.18 1.25 1.17 1.23 1.18 1.09 1.14 1.13 1.13
1.38 1.27 1.27 1.34 1.46 1.49 1.50 1.41 1.53 1.57 1.55 1.48 1.47 1.45 1.39 1.30 1.26 1.41 1.37 1.36 1.40 1.34 1.30 1.27 1.27 1.36 1.37 1.37 1.43 1.40 1.40 1.41 1.38 1.25 1.20 1.25 1.14 1.15 1.05 1.15 1.11 1.17 1.20
1.35 1.26 1.19 1.32 1.41 1.48 1.52 1.52 1.45 1.55 1.51 1.44 1.45 1.48 1.45 1.35 1.27 1.40 1.41 1.42 1.39 1.39 1.38 1.33 1.33 1.33 1.29 1.32 1.38 1.43 1.43 1.42 1.46 1.38 1.31 1.30 1.28 1.17 1.13 1.00 0.97 1.04 1.02
1.33 1.32 1.23 1.29 1.44 1.53 1.56 1.58 1.63 1.67 1.66 1.62 1.54 1.54 1.52 1.39 1.29 1.35 1.44 1.41 1.40 1.42 1.45 1.40 1.35 1.39 1.37 1.40 1.37 1.40 1.34 1.26 1.28 1.29 1.24 1.22 1.18 1.06 0.88 0.95 0.96 1.06 1.03
1.33 1.33 1.39 1.38 1.44 1.52 1.60 1.64 1.72 1.79 1.81 1.78 1.67 1.63 1.52 1.43 1.35 1.39 1.47 1.46 1.44 1.50 1.42 1.48 1.40 1.47 1.44 1.35 1.35 1.35 1.26 1.19 1.19 1.25 1.31 1.27 1.23 1.17 1.09 1.05 1.02 0.90 0.78
1.31 1.37 1.43 1.50 1.48 1.55 1.67 1.76 1.78 1.78 1.81 1.72 1.68 1.63 1.55 1.51 1.40 1.39 1.53 1.53 1.47 1.52 1.53 1.52 1.40 1.47 1.42 1.37 1.30 1.28 1.26 1.31 1.36 1.37 1.26 1.27 1.31 1.27 1.21 1.09 0.99 0.87 0.79
1.35 1.40 1.46 1.53 1.58 1.66 1.76 1.78 1.78 1.77 1.64 1.62 1.61 1.58 1.55 1.58 1.52 1.55 1.55 1.49 1.50 1.60 1.65 1.59 1.48 1.46 1.40 1.34 1.25 1.28 1.30 1.34 1.32 1.27 1.24 1.24 1.30 1.28 1.18 1.05 0.93 0.82 0.82
1.41 1.46 1.54 1.60 1.65 1.70 1.75 1.76 1.74 1.67 1.61 1.62 1.59 1.56 1.56 1.60 1.67 1.63 1.53 1.50 1.51 1.54 1.62 1.64 1.58 1.54 1.43 1.36 1.30 1.30 1.31 1.27 1.31 1.23 1.23 1.28 1.28 1.21 1.07 0.97 0.82 0.79 0.76
1.47 1.52 1.70 1.76 1.78 1.78 1.81 1.79 1.70 1.71 1.67 1.65 1.60 1.61 1.64 1.62 1.69 1.66 1.62 1.57 1.52 1.54 1.63 1.63 1.61 1.57 1.45 1.41 1.41 1.33 1.23 1.16 1.18 1.17 1.16 1.15 1.11 1.01 0.99 1.00 0.92 0.85 0.85
1.65 1.69 1.74 1.84 1.87 1.89 1.83 1.63 1.60 1.70 1.71 1.65 1.60 1.61 1.63 1.66 1.71 1.72 1.68 1.64 1.58 1.54 1.51 1.55 1.61 1.50 1.42 1.45 1.43 1.38 1.26 1.25 1.17 1.09 1.04 0.94 0.89 0.97 1.03 1.01 1.06 0.97 0.88
1.72 1.76 1.77 1.85 1.87 1.84 1.55 1.45 1.50 1.57 1.56 1.58 1.56 1.57 1.64 1.70 1.71 1.73 1.67 1.62 1.61 1.51 1.48 1.52 1.53 1.43 1.41 1.38 1.37 1.28 1.17 1.12 1.02 0.96 0.89 0.84 0.90 0.94 0.89 0.89 0.89 0.88 0.83
1.77 1.79 1.78 1.80 1.69 1.56 1.55 1.57 1.58 1.54 1.43 1.47 1.46 1.48 1.55 1.65 1.72 1.65 1.57 1.51 1.54 1.53 1.46 1.43 1.35 1.30 1.40 1.32 1.25 1.17 1.12 1.01 0.94 0.87 0.86 0.90 0.89 0.88 0.82 0.78 0.82 0.78 0.71
1.76 1.74 1.64 1.49 1.48 1.54 1.54 1.52 1.50 1.43 1.47 1.50 1.55 1.53 1.54 1.47 1.46 1.48 1.43 1.38 1.34 1.33 1.30 1.27 1.27 1.30 1.25 1.20 1.15 1.09 1.00 0.97 0.92 0.90 0.87 0.85 0.85 0.80 0.76 0.77 0.68 0.59 0.49
1.59 1.50 1.48 1.49 1.45 1.41 1.44 1.51 1.54 1.58 1.61 1.55 1.56 1.45 1.32 1.22 1.31 1.30 1.23 1.18 1.21 1.22 1.19 1.18 1.11 1.07 1.01 1.01 1.02 1.02 0.98 0.96 0.89 0.88 0.86 0.79 0.78 0.73 0.72 0.68 0.53 0.46 0.45
1.40 1.42 1.43 1.42 1.42 1.42 1.46 1.46 1.53 1.55 1.54 1.55 1.51 1.33 1.23 1.24 1.19 1.15 1.13 1.07 1.04 1.07 1.04 1.05 1.05 1.02 0.98 1.00 0.98 0.94 0.91 0.89 0.87 0.84 0.79 0.73 0.69 0.63 0.55 0.48 0.44 0.44 0.38
1.29 1.33 1.40 1.40 1.37 1.33 1.37 1.37 1.28 1.35 1.39 1.35 1.19 1.13 1.11 1.08 1.05 1.04 1.01 1.01 1.02 1.01 0.95 0.94 0.88 0.89 0.93 0.89 0.84 0.81 0.80 0.84 0.81 0.75 0.68 0.64 0.59 0.52 0.46 0.40 0.40 0.38 0.37
1.43 1.42 1.42 1.44 1.46 1.42 1.31 1.25 1.18 1.10 0.94 0.91 0.98 0.98 0.96 0.97 0.98 0.97 0.96 0.93 0.84 0.82 0.76 0.77 0.78 0.80 0.82 0.80 0.77 0.74 0.71 0.71 0.69 0.64 0.58 0.55 0.47 0.44 0.39 0.37 0.38 0.35 0.34
1.37 1.40 1.41 1.31 1.29 1.31 1.25 1.15 0.99 0.88 0.83 0.80 0.83 0.86 0.89 0.89 0.88 0.86 0.83 0.75 0.73 0.74 0.79 0.77 0.74 0.71 0.69 0.67 0.66 0.64 0.61 0.59 0.53 0.46 0.43 0.43 0.43 0.38 0.36 0.36 0.34 0.35 0.34
1.22 1.28 1.23 1.17 1.13 1.06 0.98 0.94 0.94 0.99 0.88 0.83 0.77 0.79 0.85 0.83 0.76 0.71 0.69 0.73 0.74 0.71 0.70 0.66 0.63 0.60 0.59 0.58 0.59 0.57 0.51 0.44 0.42 0.44 0.43 0.39 0.37 0.35 0.34 0.34 0.35 0.36 0.35
1.20 1.18 1.18 1.15 0.99 0.91 0.96 0.94 0.93 0.94 0.94 0.93 0.91 0.89 0.87 0.77 0.71 0.73 0.79 0.81 0.79 0.76 0.72 0.66 0.60 0.58 0.58 0.57 0.53 0.42 0.38 0.39 0.40 0.39 0.37 0.35 0.34 0.33 0.39 0.36 0.38 0.38 0.36
1.27 1.00 1.02 1.08 1.13 0.91 0.93 0.93 0.95 0.96 0.96 0.99 0.97 0.94 0.91 0.82 0.80 0.77 0.79 0.81 0.79 0.76 0.71 0.63 0.60 0.58 0.57 0.49 0.41 0.34 0.34 0.36 0.36 0.35 0.33 0.32 0.33 0.38 0.39 0.38 0.39 0.37 0.36
1.32 1.24 1.07 1.06 1.08 1.07 1.08 1.12 1.16 1.04 1.03 1.10 0.89 0.93 0.88 0.83 0.81 0.83 0.78 0.79 0.76 0.74 0.69 0.64 0.59 0.55 0.50 0.42 0.33 0.32 0.34 0.37 0.36 0.34 0.31 0.32 0.36 0.39 0.39 0.38 0.37 0.35 0.34
1.21 1.07 1.14 1.08 1.03 1.06 1.09 1.13 1.05 1.05 1.00 0.92 0.90 0.91 0.84 0.85 0.81 0.81 0.76 0.75 0.72 0.70 0.68 0.63 0.57 0.51 0.45 0.39 0.32 0.31 0.34 0.36 0.34 0.31 0.30 0.32 0.38 0.39 0.38 0.37 0.35 0.34 0.34
0.99 0.98 1.08 1.08 0.99 1.08 1.08 1.07 1.01 0.91 0.90 0.89 0.90 0.94 0.91 0.93 0.82 0.78 0.77 0.69 0.67 0.68 0.66 0.62 0.58 0.51 0.44 0.38 0.33 0.31 0.31 0.30 0.30 0.25 0.23 0.27 0.36 0.39 0.36 0.34 0.34 0.33 0.34
0.97 1.01 1.01 0.96 0.88 0.97 0.96 0.86 0.88 0.89 0.87 0.94 0.87 0.94 0.89 0.89 0.80 0.80 0.70 0.68 0.65 0.65 0.65 0.63 0.60 0.55 0.45 0.40 0.36 0.31 0.29 0.26 0.23 0.20 0.20 0.25 0.34 0.38 0.34 0.31 0.33 0.33 0.32
Wind_Speed
22 22 23 21 20 20 18 17 16 16 15 14 14 15 16 16 17 17 18 17 16 15 15 16 16 16 17 17 17 18 19 19 20 21 21 22 24 26 27 28 28 29 29
23 23 24 23 22 21 20 18 18 17 16 16 17 18 18 18 18 18 19 18 17 16 16 17 17 18 17 17 18 19 20 21 21 23 24 25 25 26 26 26 27 29 28
25 24 24 25 23 23 21 22 20 20 19 19 19 20 20 20 20 21 21 20 20 19 18 17 17 17 17 18 19 21 22 22 24 24 25 25 26 26 26 25 26 26 28
26 26 26 26 25 24 23 22 22 21 21 21 21 22 22 23 23 24 23 22 22 21 20 19 19 18 18 20 21 22 23 25 25 26 26 26 25 26 26 27 29 30 30
27 27 27 27 27 25 24 24 23 23 22 22 23 23 24 23 24 24 24 23 23 23 22 22 22 22 21 21 22 23 23 27 28 29 29 30 29 29 30 30 31 30 30
27 27 27 28 28 27 25 25 24 24 23 24 24 24 24 24 25 25 25 24 24 24 25 24 24 23 23 24 24 25 28 29 30 31 31 32 32 31 31 31 31 33 34
28 27 27 27 27 27 26 25 24 24 24 24 24 24 25 26 26 26 26 26 26 26 26 25 25 25 25 26 27 28 30 32 32 29 29 31 33 32 32 33 34 35 37
29 28 28 27 27 27 26 25 25 24 24 23 23 24 25 27 27 28 28 28 28 27 28 27 27 28 28 29 30 31 32 33 32 29 30 30 32 34 34 35 37 37 35
31 29 27 27 26 26 25 25 26 25 24 24 24 24 26 27 27 27 27 28 29 30 30 29 29 29 29 30 32 32 32 32 32 32 31 33 33 34 36 37 35 33 33
32 31 28 27 27 26 26 25 25 24 23 23 24 26 26 27 27 27 27 28 29 29 30 30 30 30 30 31 32 32 33 32 31 30 31 31 33 35 34 33 34 33 32
32 31 29 28 27 26 25 24 24 23 23 24 24 26 27 28 29 29 28 29 29 29 29 28 28 29 30 32 32 32 32 32 32 32 32 32 32 31 32 32 30 30 31
31 30 29 28 27 25 24 23 23 22 23 24 25 27 28 30 29 28 28 28 27 28 27 28 28 29 30 29 29 31 30 32 33 33 32 31 30 29 28 29 30 31 32
29 29 28 26 25 24 23 23 25 25 24 26 27 29 30 27 27 26 26 27 28 27 27 28 28 30 29 29 30 29 30 32 32 31 29 29 28 29 29 29 28 28 29
28 27 26 25 23 23 23 23 23 23 25 26 27 27 25 23 23 24 24 25 25 26 26 28 28 27 29 28 28 28 29 29 28 27 27 26 26 26 26 26 26 27 28
26 25 24 23 22 22 22 23 24 24 26 26 26 25 23 23 23 23 23 24 24 25 26 26 26 26 27 27 26 27 26 26 26 24 24 25 24 25 24 25 25 25 25
24 23 23 22 22 22 23 23 22 24 24 24 24 23 22 22 22 22 22 22 22 23 23 24 25 26 27 26 25 25 24 24 24 22 21 23 24 23 24 23 23 22 23
22 22 22 22 22 23 23 24 24 25 24 22 20 20 20 21 21 21 21 20 21 22 23 24 24 24 21 21 22 22 23 21 21 22 23 23 22 22 22 21 21 21 21
20 20 22 23 24 23 20 21 22 23 21 19 20 20 20 20 19 19 20 20 21 22 21 20 20 19 19 19 20 20 20 21 21 22 21 21 21 20 19 19 19 19 20
20 20 19 19 18 19 19 19 18 17 16 17 18 18 17 18 18 18 19 20 20 19 18 18 17 18 18 19 19 19 19 20 20 20 20 18 18 18 18 18 18 18 19
19 19 20 19 19 18 19 19 19 18 17 16 16 16 17 17 18 18 18 18 18 17 16 17 17 17 17 17 18 18 18 18 17 17 17 17 16 16 16 17 17 18 18
20 19 19 17 17 18 18 19 19 19 18 17 16 15 16 16 17 16 15 14 15 15 15 15 15 14 15 15 15 16 16 16 16 15 15 15 15 15 16 16 17 17 17
20 20 20 20 20 19 19 18 18 18 19 17 16 16 15 16 16 15 15 15 15 14 14 13 13 13 13 14 15 15 15 15 14 14 14 14 14 15 16 16 17 17 17
21 17 16 16 17 18 18 18 17 15 15 15 16 17 16 17 17 17 16 15 14 13 13 12 12 13 13 14 14 14 14 14 13 14 14 14 14 15 15 16 16 16 16
16 17 17 18 19 19 16 17 17 15 16 17 18 18 19 18 17 16 15 15 15 13 12 12 12 12 12 13 13 13 13 12 13 13 14 14 14 15 14 14 15 14 15
16 17 17 17 17 18 18 19 19 18 18 19 18 18 17 16 16 15 16 15 13 13 12 12 12 12 13 12 12 11 11 12 13 14 14 14 13 14 13 13 14 14 13
14 15 16 17 17 17 19 18 18 18 18 18 19 20 18 19 17 17 16 13 12 13 13 12 13 13 12 13 13 12 12 13 13 13 13 12 12 13 12 11 12 12 12
Wind_Direction
222 221 220 223 223 224 230 236 242 248 259 265 275 284 290 291 295 299 306 310 314 301 287 285 287 293 292 290 295 299 299 295 293 290 285 284 285 287 286 285 286 286 287
223 223 222 223 225 227 233 240 244 250 260 269 277 283 286 289 289 294 298 301 303 302 291 287 286 287 287 293 294 297 298 296 294 291 288 289 290 290 289 287 288 290 286
224 225 225 225 227 231 238 241 247 254 262 268 276 281 284 286 287 289 292 293 293 297 294 286 287 287 286 289 295 297 297 297 296 293 291 289 290 290 291 290 292 290 290
226 228 228 227 230 235 239 243 249 257 263 268 273 279 281 286 287 286 285 287 290 291 290 285 280 283 287 291 295 297 297 297 294 293 290 288 287 291 290 292 292 292 291
227 229 230 230 233 237 240 246 252 258 265 269 274 278 279 285 286 286 282 283 285 286 286 284 279 281 285 289 295 297 299 304 293 289 288 287 286 288 288 290 291 294 294
229 232 231 231 234 238 242 247 252 259 266 271 275 276 279 285 286 284 282 282 284 283 282 283 279 279 279 285 291 294 297 301 300 290 285 286 285 287 289 291 293 294 295
232 232 231 232 235 238 241 247 253 259 265 270 275 277 279 284 288 283 282 282 282 283 280 282 278 278 279 283 289 294 298 301 302 294 284 283 283 285 288 291 293 295 294
232 232 232 233 236 236 241 248 253 259 263 267 275 278 283 286 285 286 281 279 281 282 280 279 278 276 277 281 288 293 297 300 299 294 291 288 286 285 289 291 294 294 294
231 232 233 232 234 237 243 249 253 259 262 268 273 279 283 286 287 288 283 280 281 281 280 281 278 277 277 282 286 291 296 298 297 292 290 290 288 288 291 293 293 292 293
231 230 232 233 236 241 246 250 254 256 264 269 274 280 283 286 286 286 283 283 284 283 281 280 278 278 281 284 287 289 295 296 296 295 294 293 291 291 290 290 290 289 291
228 228 231 234 238 242 245 249 253 257 266 271 276 282 284 286 287 287 283 283 284 284 282 280 281 282 286 286 288 290 294 295 295 296 295 295 293 292 292 292 290 289 290
225 227 230 234 237 241 241 246 250 260 270 273 280 285 286 287 285 285 283 282 284 284 283 282 282 285 289 289 288 291 292 294 295 296 295 295 294 294 294 292 293 293 293
222 224 227 229 234 235 243 250 265 269 271 275 281 288 291 285 284 283 284 284 284 284 282 283 287 290 287 289 289 290 294 295 295 295 294 294 295 296 296 296 296 296 297
219 221 222 225 230 238 246 254 264 271 276 280 285 292 287 287 286 287 288 287 285 283 284 286 290 288 289 290 290 290 294 296 297 296 296 297 297 298 298 299 300 300 301
212 214 220 226 234 243 252 263 269 274 278 280 283 287 286 285 286 288 288 288 288 287 287 288 289 291 291 291 291 293 294 295 297 296 296 298 299 300 300 301 302 302 302
209 217 224 231 239 247 257 264 271 274 280 282 285 283 286 286 287 288 289 291 290 290 290 291 291 293 292 292 292 294 296 296 297 297 299 300 300 301 302 303 303 304 306
214 222 229 237 246 250 259 266 268 276 278 280 284 283 285 285 286 287 290 291 293 293 294 295 295 297 296 295 296 296 297 297 297 299 299 299 300 301 303 304 304 307 309
220 229 237 245 256 259 263 265 274 273 280 273 282 284 285 285 287 289 291 293 295 296 298 298 298 298 300 298 299 300 300 300 301 302 301 301 301 302 304 305 306 308 311
237 245 249 254 259 259 262 264 270 271 275 278 278 282 284 287 290 292 294 295 297 299 296 298 302 302 301 302 303 303 303 303 303 303 302 299 301 303 304 307 308 310 312
245 247 251 255 257 260 261 266 269 271 274 276 276 278 281 285 289 292 293 294 296 297 298 300 301 301 302 304 305 306 307 307 307 306 305 305 304 304 305 308 309 311 313
245 248 257 249 255 261 262 266 267 268 271 272 274 276 279 286 289 290 292 294 296 297 300 300 301 303 305 307 310 313 311 310 310 311 311 310 309 308 309 309 310 312 313
250 251 255 257 258 262 263 265 264 267 269 268 272 270 273 283 288 289 289 291 295 293 296 298 299 303 308 309 311 312 313 315 314 314 314 312 310 310 311 310 312 313 315
250 250 264 260 257 263 265 264 261 269 272 260 272 271 274 283 286 288 287 287 288 288 293 295 298 302 306 308 311 311 310 314 316 318 316 314 314 314 312 313 315 316 319
247 250 249 259 261 261 258 255 265 266 269 268 270 271 275 276 281 280 280 283 281 279 284 291 296 302 308 308 311 311 311 311 315 318 319 316 316 317 316 317 320 319 322
253 259 257 255 256 256 257 261 268 268 266 269 271 270 272 271 276 271 277 280 271 270 275 284 293 300 302 305 309 310 312 313 315 316 317 318 318 319 319 319 325 324 327
250 248 251 260 261 259 263 266 267 265 267 267 268 267 268 271 269 271 270 258 272 267 270 278 286 292 298 301 302 301 306 311 315 316 316 318 320 323 326 324 329 332 334